Location: Cussy
(47.0410°N, 4.6412°E)
Time: 05:39:30
(UTC+00:00)

Envisat - Pass Details

Date: 30 November 2020
Orbit: 764 x 766 km, 98.1° (Epoch: 18 January)

Event Time Altitude Azimuth Distance (km) Brightness Sun altitude
Rises 17:12:08 0° 183° (S) 3,219 6.5 -12.8°
Reaches altitude 10° 17:14:32 10° 190° (S) 2,298 5.9 -13.2°
Maximum altitude 17:19:21 43° 262° (W) 1,068 4.3 -14.0°
Drops below altitude 10° 17:24:12 10° 334° (NNW) 2,315 5.6 -14.8°
Sets 17:26:38 0° 341° (NNW) 3,246 6.3 -15.2°
